| time (UTC) | temp F | wind direction | speed MPH | gust MPH | rain 1hr in | rain 24hr in | rain mn in | humidity % | barometer mb |
| 20260503014703 | 40 | 344 | 0.0 | 1.0 | 0.00 | 0.00 | 0.00 | 74 | 1014.5 |
| 20260503013652 | 40 | 44 | 0.0 | 0.0 | 0.00 | 0.00 | 0.00 | 74 | 1014.5 |
| 20260503012709 | 40 | 339 | 0.0 | 0.0 | 0.00 | 0.00 | 0.00 | 74 | 1014.5 |
| 20260503011646 | 40 | 53 | 0.0 | 0.0 | 0.00 | 0.00 | 0.00 | 74 | 1014.5 |
| 20260503010628 | 40 | 135 | 0.0 | 0.0 | 0.00 | 0.00 | 0.00 | 74 | 1014.4 |
| 20260503005624 | 40 | 166 | 0.0 | 1.0 | 0.00 | 0.00 | 0.00 | 75 | 1014.4 |
| 20260503004644 | 40 | 359 | 0.0 | 0.0 | 0.00 | 0.00 | 0.00 | 74 | 1014.3 |
| 20260503003654 | 40 | 30 | 0.0 | 0.0 | 0.00 | 0.00 | 0.00 | 74 | 1014.2 |
| 20260503002655 | 41 | 1 | 0.0 | 1.0 | 0.00 | 0.00 | 0.00 | 73 | 1014.1 |
| 20260503001647 | 41 | 340 | 0.0 | 0.0 | 0.00 | 0.00 | 0.00 | 74 | 1014.1 |
| 20260503000636 | 41 | 347 | 0.0 | 1.0 | 0.00 | 0.00 | 0.00 | 73 | 1014.1 |
| 20260502235637 | 41 | 8 | 0.0 | 0.0 | 0.00 | 0.00 | 0.00 | 73 | 1014.0 |
| 20260502234632 | 41 | 340 | 0.0 | 0.0 | 0.00 | 0.00 | 0.00 | 73 | 1014.0 |
| 20260502233629 | 41 | 321 | 0.0 | 3.0 | 0.00 | 0.00 | 0.00 | 72 | 1013.9 |
| 20260502232649 | 41 | 359 | 0.0 | 3.0 | 0.00 | 0.00 | 0.00 | 72 | 1013.9 |
| 20260502231654 | 41 | 355 | 0.0 | 1.0 | 0.00 | 0.00 | 0.00 | 72 | 1013.8 |
| 20260502230623 | 42 | 300 | 0.0 | 3.0 | 0.00 | 0.00 | 0.00 | 71 | 1013.8 |
| 20260502225629 | 42 | 353 | 0.0 | 3.0 | 0.00 | 0.00 | 0.00 | 71 | 1013.8 |
| 20260502224554 | 42 | 334 | 0.0 | 0.0 | 0.00 | 0.00 | 0.00 | 71 | 1013.7 |
| 20260502221321 | 42 | 1 | 0.0 | 1.0 | 0.00 | 0.01 | 0.00 | 71 | 1013.6 |
| 20260502215115 | 42 | 8 | 0.0 | 1.0 | 0.00 | 0.01 | 0.00 | 70 | 1013.6 |
| 20260502214136 | 43 | 350 | 0.0 | 0.0 | 0.00 | 0.01 | 0.00 | 71 | 1013.7 |
| 20260502213139 | 43 | 345 | 0.0 | 5.0 | 0.00 | 0.01 | 0.00 | 68 | 1013.6 |
| 20260502212135 | 43 | 349 | 0.0 | 5.0 | 0.00 | 0.02 | 0.00 | 64 | 1013.4 |
| 20260502211145 | 44 | 8 | 0.0 | 1.0 | 0.00 | 0.02 | 0.00 | 68 | 1013.4 |
| 20260502210145 | 43 | 357 | 0.0 | 4.0 | 0.00 | 0.03 | 0.00 | 67 | 1013.4 |
| 20260502204110 | 43 | 343 | 0.0 | 4.0 | 0.00 | 0.04 | 0.00 | 68 | 1013.5 |
| 20260502203057 | 44 | 305 | 0.0 | 5.0 | 0.00 | 0.04 | 0.00 | 67 | 1013.6 |
| 20260502200908 | 44 | 42 | 0.0 | 3.0 | 0.00 | 0.05 | 0.00 | 62 | 1013.5 |
| 20260502195908 | 44 | 356 | 1.0 | 3.0 | 0.00 | 0.05 | 0.00 | 62 | 1013.6 |
| 20260502194931 | 44 | 317 | 0.0 | 3.0 | 0.00 | 0.05 | 0.00 | 60 | 1013.7 |
| 20260502193927 | 44 | 359 | 1.0 | 8.0 | 0.00 | 0.05 | 0.00 | 60 | 1013.7 |
| 20260502192909 | 44 | 343 | 1.0 | 8.0 | 0.00 | 0.05 | 0.00 | 59 | 1013.7 |
| 20260502191920 | 45 | 358 | 1.0 | 6.0 | 0.00 | 0.05 | 0.00 | 57 | 1013.7 |
| 20260502190924 | 45 | 354 | 3.0 | 6.0 | 0.00 | 0.05 | 0.00 | 54 | 1013.6 |
| 20260502185857 | 46 | 342 | 1.0 | 6.0 | 0.00 | 0.06 | 0.00 | 53 | 1013.6 |
| 20260502184849 | 47 | 51 | 1.0 | 5.0 | 0.00 | 0.06 | 0.00 | 52 | 1013.6 |
| 20260502183907 | 46 | 312 | 1.0 | 11.0 | 0.00 | 0.06 | 0.00 | 52 | 1013.5 |
| 20260502182846 | 47 | 358 | 1.0 | 11.0 | 0.00 | 0.06 | 0.00 | 49 | 1013.5 |
| 20260502180741 | 48 | 133 | 1.0 | 10.0 | 0.00 | 0.06 | 0.00 | 48 | 1013.4 |
| 20260502170518 | 47 | 352 | 3.0 | 7.0 | 0.00 | 0.06 | 0.00 | 51 | 1013.3 |
| 20260502162357 | 47 | 347 | 3.0 | 8.0 | 0.00 | 0.06 | 0.00 | 53 | 1013.6 |
| 20260502161334 | 47 | 136 | 3.0 | 8.0 | 0.00 | 0.06 | 0.00 | 48 | 1013.5 |
| 20260502151958 | 45 | 25 | 3.0 | 6.0 | 0.00 | 0.06 | 0.00 | 58 | 1013.7 |
| 20260502151002 | 45 | 299 | 1.0 | 8.0 | 0.00 | 0.06 | 0.00 | 55 | 1013.8 |
| 20260502130741 | 40 | 354 | 0.0 | 4.0 | 0.00 | 0.06 | 0.00 | 78 | 1014.5 |
| 20260502123555 | 38 | 278 | 1.0 | 4.0 | 0.00 | 0.06 | 0.00 | 83 | 1014.8 |
| 20260502122600 | 37 | 1 | 1.0 | 5.0 | 0.00 | 0.06 | 0.00 | 83 | 1014.7 |
| 20260502121615 | 37 | 339 | 1.0 | 5.0 | 0.00 | 0.06 | 0.00 | 85 | 1014.7 |
| 20260502120623 | 37 | 7 | 0.0 | 6.0 | 0.00 | 0.06 | 0.00 | 88 | 1014.7 |
| 20260502115642 | 36 | 4 | 1.0 | 4.0 | 0.00 | 0.06 | 0.00 | 87 | 1014.7 |
| 20260502114647 | 35 | 349 | 0.0 | 3.0 | 0.00 | 0.06 | 0.00 | 89 | 1014.7 |
| 20260502112514 | 35 | 347 | 0.0 | 4.0 | 0.00 | 0.06 | 0.00 | 91 | 1014.6 |
| 20260502111520 | 34 | 49 | 0.0 | 2.0 | 0.00 | 0.06 | 0.00 | 92 | 1014.5 |
| 20260502110545 | 34 | 356 | 0.0 | 1.0 | 0.00 | 0.06 | 0.00 | 92 | 1014.4 |
| 20260502105530 | 34 | 338 | 0.0 | 1.0 | 0.00 | 0.06 | 0.00 | 93 | 1014.3 |
| 20260502104537 | 33 | 308 | 0.0 | 0.0 | 0.00 | 0.06 | 0.00 | 93 | 1014.2 |
| 20260502103506 | 33 | 354 | 0.0 | 0.0 | 0.00 | 0.06 | 0.00 | 93 | 1014.1 |
| 20260502102453 | 33 | 162 | 0.0 | 0.0 | 0.00 | 0.06 | 0.00 | 93 | 1014.1 |
| 20260502101443 | 34 | 169 | 0.0 | 0.0 | 0.00 | 0.06 | 0.00 | 92 | 1014.1 |
| 20260502100412 | 34 | 105 | 0.0 | 0.0 | 0.00 | 0.06 | 0.00 | 92 | 1014.0 |
| 20260502091257 | 34 | 298 | 0.0 | 0.0 | 0.00 | 0.06 | 0.00 | 91 | 1013.6 |
| 20260502090251 | 35 | 324 | 0.0 | 0.0 | 0.00 | 0.06 | 0.00 | 91 | 1013.5 |
| 20260502070801 | 38 | 190 | 0.0 | 0.0 | 0.00 | 0.06 | 0.00 | 94 | 1012.4 |
| 20260502065812 | 38 | 355 | 0.0 | 0.0 | 0.00 | 0.06 | 0.00 | 95 | 1012.5 |
| 20260502064806 | 38 | 1 | 0.0 | 1.0 | 0.00 | 0.06 | 0.00 | 95 | 1012.5 |
| 20260502063817 | 38 | 343 | 0.0 | 0.0 | 0.00 | 0.06 | 0.00 | 95 | 1012.6 |
| 20260502062803 | 38 | 346 | 0.0 | 0.0 | 0.00 | 0.06 | 0.00 | 95 | 1012.6 |
| 20260502061801 | 38 | 350 | 0.0 | 0.0 | 0.00 | 0.06 | 0.00 | 95 | 1012.8 |
| 20260502060729 | 38 | 350 | 0.0 | 0.0 | 0.00 | 0.06 | 0.00 | 95 | 1012.6 |
| 20260502055704 | 38 | 350 | 0.0 | 0.0 | 0.00 | 0.06 | 0.00 | 95 | 1012.6 |
| 20260502054658 | 38 | 350 | 0.0 | 0.0 | 0.00 | 0.06 | 0.00 | 95 | 1012.8 |
| 20260502053648 | 39 | 350 | 0.0 | 0.0 | 0.00 | 0.06 | 0.00 | 95 | 1012.8 |
| 20260502051548 | 39 | 350 | 0.0 | 0.0 | 0.00 | 0.06 | 0.00 | 95 | 1012.7 |
| 20260502045407 | 39 | 350 | 0.0 | 0.0 | 0.00 | 0.06 | 0.00 | 95 | 1013.0 |
| 20260502044418 | 40 | 350 | 0.0 | 0.0 | 0.00 | 0.06 | 0.00 | 95 | 1012.7 |
| 20260502042216 | 40 | 1 | 0.0 | 0.0 | 0.00 | 0.06 | 0.00 | 95 | 1012.6 |
| 20260502041234 | 40 | 105 | 0.0 | 0.0 | 0.00 | 0.06 | 0.00 | 95 | 1012.7 |
| 20260502040257 | 40 | 118 | 0.0 | 0.0 | 0.00 | 0.06 | 0.00 | 95 | 1012.7 |
| 20260502035247 | 40 | 9 | 0.0 | 0.0 | 0.00 | 0.06 | 0.06 | 95 | 1012.7 |
| 20260502034254 | 40 | 135 | 0.0 | 0.0 | 0.00 | 0.06 | 0.06 | 95 | 1012.7 |
| 20260502032210 | 40 | 10 | 0.0 | 0.0 | 0.00 | 0.06 | 0.06 | 95 | 1012.5 |
| 20260502030040 | 40 | 340 | 0.0 | 0.0 | 0.00 | 0.06 | 0.06 | 95 | 1012.5 |
| 20260502025009 | 40 | 340 | 0.0 | 0.0 | 0.00 | 0.06 | 0.06 | 94 | 1012.6 |
| 20260502023950 | 40 | 340 | 0.0 | 0.0 | 0.00 | 0.06 | 0.06 | 94 | 1012.6 |
| 20260502022944 | 40 | 340 | 0.0 | 0.0 | 0.00 | 0.06 | 0.06 | 94 | 1012.6 |
| 20260502021941 | 40 | 340 | 0.0 | 0.0 | 0.00 | 0.06 | 0.06 | 94 | 1012.6 |